Home   Weather   Rio de Janeiro   Past weeks
Flag for Brazil

Past Weather in Rio de Janeiro, Rio de Janeiro, Brazil — Yesterday and Last 2 Weeks

Now
72 °F

Fog.


Feels Like: 65 °F
Forecast: 85 / 71 °F
Wind: 6 mph from Northeast

Location: Rio De Janeiro Airport

Current Time: May 23, 2019 at 8:13:01 am

Latest Report: May 23, 2019 at 7:00 am


Visibility: 2 mi

Pressure: 29.92 "Hg

Humidity: 100%

Dew Point: 72 °F

Location of Rio de JaneiroLocation

Past Weather in Rio de Janeiro — Graph

°F

Rio de Janeiro Temperature Yesterday

Maximum temperature yesterday: 84 °F (at 1:00 pm)
Minimum temperature yesterday: 73 °F (at 12:00 am)
Average temperature yesterday: 77 °F

High & Low Weather Summary for the Past Weeks

 TemperatureHumidityPressure
High88 °F (May 11, 1:00 pm)100% (May 12, 5:00 am)30.12 "Hg (May 12, 5:00 am)
Low70 °F (May 19, 4:00 am)21% (May 14, 11:10 pm)29.83 "Hg (May 11, 2:00 pm)
Average77 °F85%29.99 "Hg
* Reported May 8 7:00 am — May 23 7:00 am, Rio de Janeiro. Weather by CustomWeather, © 2019

Note: Actual official high and low records may vary slightly from our data, if they occured in-between our weather recording intervals... More about our weather records

Advertising

Rio de Janeiro Weather History for the Previous 24 Hours

Scroll right to see more
 ConditionsComfort  
Time TempWeatherWind HumidityBarometerVisibility
7:00 am
Thu, May 23
72 °FFog.6 mph100%29.92 "Hg2 mi
6:30 am72 °FFog.6 mph100%29.92 "Hg2 mi
6:00 am73 °FFog.5 mph100%29.92 "Hg2 mi
5:00 am73 °FFog.3 mph100%29.92 "Hg2 mi
4:00 am75 °FFog.5 mph94%29.89 "Hg2 mi
3:00 am73 °FFog.5 mph100%29.92 "Hg2 mi
2:00 am73 °FFog.5 mph100%29.92 "Hg2 mi
1:00 am73 °FFog.3 mph100%29.95 "Hg2 mi
12:00 am73 °FFog.5 mph100%29.95 "Hg2 mi
11:00 pm
Wed, May 22
73 °FFog.6 mph94%29.95 "Hg3 mi
10:00 pm75 °FFog.3 mph94%29.95 "Hg3 mi
9:00 pm75 °FFog.6 mph94%29.95 "Hg3 mi
8:00 pm75 °FClear.6 mph100%29.95 "Hg4 mi
7:00 pm77 °FClear.7 mph94%29.92 "Hg4 mi
6:00 pm77 °FFog.8 mph94%29.92 "Hg3 mi
5:00 pm79 °FPassing clouds.9 mph89%29.92 "Hg4 mi
4:00 pm81 °FPassing clouds.12 mph84%29.89 "Hg4 mi
3:00 pm82 °FPassing clouds.12 mph79%29.89 "Hg4 mi
2:00 pm84 °FPassing clouds.8 mph74%29.92 "Hg4 mi
1:00 pm84 °FHaze.3 mph70%29.92 "Hg3 mi
12:10 pm82 °FHaze.3 mph74%29.95 "Hg3 mi
12:00 pm82 °FHaze.5 mph74%29.95 "Hg3 mi
11:00 am81 °FFog.6 mph79%29.98 "Hg2 mi
10:00 am79 °FFog.6 mph84%29.98 "Hg2 mi
9:00 am77 °FFog.5 mph89%29.98 "Hg2 mi
8:00 am75 °FFog.6 mph94%29.95 "Hg2 mi
Weather by CustomWeather, © 2019

See weather overview